Flag for Canada Weather past 2 weeks in Vancouver, British Columbia, Canada

Now
59 °F

Passing clouds.


Feels Like: 58 °F
Forecast: 57 / 69 °F
Wind: 7 mph from East

Location: Vancouver International Air-Port

Current Time: Aug 20, 2014 at 3:50:41 AM

Latest Report: Aug 20, 2014 at 3:00 AM


Visibility: 15 mi

Pressure: 29.82 "Hg

Humidity: 94%

Dew point: 57 °F

Location of VancouverLocation

Historic Weather in Vancouver — Graph

°F

Vancouver temperature yesterday

Maximum temperature yesterday: 73 °F (at 5:00 PM)
Minimum temperature yesterday: 64 °F (at 12:00 AM)
Average temperature yesterday: 68 °F

Past Weeks' High & Low Weather Summary

 TemperatureHumidityPressure
High82 °F (Aug 11, 3:00 PM)100% (Aug 13, 10:00 AM)30.16 "Hg (Aug 13, 10:00 AM)
Low57 °F (Aug 8, 4:00 AM)50% (Aug 7, 7:00 PM)29.75 "Hg (Aug 19, 8:00 PM)
Average67 °F80%30.00 "Hg
* Reported Aug 5 2:00 AM — Aug 20 2:00 AM, Vancouver, Weather by CustomWeather, © 2014

Note: Actual official high and low records may vary slightly from our data, if they occured in-between our weather recording intervals... More about our weather records

Advertising

Vancouver weather history for previous 24 hours

 ConditionsComfort  
Time TempWeatherWind HumidityBarometerVisibility
2:00 AM
Aug 20
61 °FPassing clouds.5 mph88%29.80 "Hg15 mi
1:00 AM66 °FPassing clouds.No wind83%29.80 "Hg15 mi
12:00 AM64 °FClear.5 mph94%29.78 "Hg15 mi
11:00 PM
Aug 19
66 °FClear.3 mph88%29.77 "Hg20 mi
10:00 PM64 °FClear.5 mph88%29.77 "Hg20 mi
9:00 PM64 °FPassing clouds.5 mph88%29.76 "Hg30 mi
8:00 PM68 °FPartly sunny.3 mph78%29.75 "Hg30 mi
7:00 PM72 °FPartly sunny.6 mph69%29.76 "Hg30 mi
6:00 PM72 °FPartly sunny.7 mph69%29.76 "Hg30 mi
5:00 PM73 °FScattered clouds.8 mph69%29.78 "Hg30 mi
4:00 PM72 °FPartly sunny.9 mph73%29.79 "Hg30 mi
3:00 PM72 °FScattered clouds.7 mph73%29.80 "Hg30 mi
2:00 PM72 °FBroken clouds.6 mph73%29.82 "Hg20 mi
1:00 PM72 °FScattered clouds.5 mph69%29.82 "Hg15 mi
12:00 PM70 °FPartly sunny.8 mph78%29.83 "Hg15 mi
11:00 AM70 °FScattered clouds.10 mph78%29.82 "Hg15 mi
10:00 AM70 °FScattered clouds.13 mph78%29.82 "Hg15 mi
9:00 AM68 °FPartly sunny.9 mph83%29.82 "Hg15 mi
8:00 AM66 °FPartly sunny.12 mph88%29.81 "Hg15 mi
7:00 AM64 °FPassing clouds.10 mph94%29.80 "Hg15 mi
6:00 AM64 °FPassing clouds.14 mph94%29.80 "Hg15 mi
5:00 AM64 °FClear.9 mph88%29.80 "Hg15 mi
4:00 AM64 °FPassing clouds.10 mph94%29.80 "Hg15 mi
3:00 AM66 °FPartly cloudy.14 mph88%29.80 "Hg15 mi
Weather by CustomWeather, © 2014

See weather overviewHow to use our weather pages